Location: *
(8.5167°S, 98.8167°W)
Time: 03:15:20
(UTC+00:00)

Daily predictions for brighter satellites

Satellite Brightness Start Highest point End
(mag) Time Altitude Azimuth Time Altitude Azimuth Time Altitude Azimuth
Cosmos 1939 Rocket 3.7 00:47:34 10° SE 00:51:13 30° E 00:54:46 10° NNE
Cosmos 1455 2.1 00:48:42 10° S 00:52:25 63° E 00:56:06 10° NNE
Helios 1A Rocket 4.3 00:52:01 10° SE 00:54:57 19° E 00:57:53 10° NE
Cosmos 1980 Rocket 2.3 00:49:58 10° SSW 00:55:40 85° WNW 01:01:19 10° NNE
FengYun 1-2 T 4.3 00:50:07 10° SSE 00:55:46 72° ENE 01:01:24 10° N
Cosmos 1340 4.2 00:54:44 10° NE 00:57:13 17° E 00:59:44 10° SE
Cosmos 482 Debris 4.4 01:03:07 10° SSW 01:06:06 30° SE 01:07:35 16° ENE
COSMOS 2487 2.7 01:05:49 10° NNW 01:09:12 69° WSW 01:12:37 10° S
Feng Yun 1-1 Rocket 4.3 01:07:16 10° SSE 01:12:58 74° ENE 01:18:47 10° N
CZ-4 R/B 2.2 01:10:20 10° SE 01:13:50 28° E 01:17:16 10° NNE
GPS 2-17 Rocket1 3.1 01:14:46 10° WSW 01:19:16 64° SSE 01:22:12 20° E
IUS-1 SRM-2 4.0 01:16:45 10° SW 01:20:48 70° SSE 01:33:40 18° ENE
ATLAS 3B CENTAUR R/B 3.1 01:16:26 10° SW 01:20:52 44° SE 01:27:21 18° E
EO 1 Delta rocket 4.1 01:18:31 10° NNE 01:23:12 57° E 01:28:49 10° S
BREEZE-M DEB (TANK) 4.2 01:06:24 10° SW 01:25:14 82° SE 01:29:14 18° NE
Cosmos 2322 Rocket 3.0 01:22:00 10° SSE 01:26:54 30° ESE 01:29:18 22° ENE
CZ-2C R/B 3.7 01:21:40 10° SSE 01:26:59 39° ENE 01:32:22 10° N
In-Cosmos 22 Rocket 4.2 01:23:41 10° N 01:29:05 56° E 01:34:42 10° SSE
Milstar 3 Cent rocket 3.5 01:17:04 10° NW 01:31:17 63° NNE 01:36:38 19° ESE
CZ-2C R/B 2.1 01:32:57 10° WSW 01:37:06 45° NW 01:39:16 23° NNE
BLOCK DM-SL R/B 3.4 01:34:45 10° W 01:38:42 69° N 01:43:17 25° ENE
CZ-2D R/B 3.5 01:36:14 10° S 01:40:05 69° WSW 01:43:53 10° NNW
Cosmos 2058 3.2 01:42:25 39° ENE 01:43:08 43° E 01:47:04 10° SSE
Meteor 1-27 4.5 01:42:36 10° SSE 01:48:03 45° E 01:49:55 34° NE
BREEZE-M DEB (TANK) 3.3 01:52:20 10° SW 01:54:55 61° NW 01:56:58 31° NNE
YAOGAN 1 2.5 01:52:06 10° S 01:56:26 85° WSW 02:00:45 10° NNW
Cosmos 1892 3.0 01:52:40 10° N 01:56:30 68° W 02:00:21 10° S
Cosmos 1745 Rocket 3.9 01:53:34 10° N 01:59:55 83° E 02:06:18 10° S
SL-16 R/B 2.2 01:56:30 10° SSW 02:02:11 84° WNW 02:05:05 30° NNE
CSL-04 Rocket 3.7 01:58:04 10° SSE 02:03:32 59° ENE 02:06:31 27° N
Cosmos-2242 4.2 02:00:01 10° SSW 02:04:02 41° W 02:08:01 10° NNW
H-2A R/B 2.0 01:59:09 10° SSE 02:04:18 65° ENE 02:06:45 32° N
Cosmos 1408 3.9 02:08:54 33° S 02:08:54 33° S 02:11:04 10° S
Cosmos 972 Rocket 4.0 02:02:47 10° S 02:07:11 57° SE 02:07:11 57° SE
Meteosat 1 Rocket2 2.9 02:04:07 10° WSW 02:07:52 81° NW 02:07:52 81° NW
ARIANE 5 DEB (SYLDA) 4.3 01:58:59 10° WNW 02:10:05 35° NNW 02:11:30 32° N
Cosmos 1346 Rocket 4.0 02:11:59 34° S 02:11:59 34° S 02:14:19 10° S
CZ-2C R/B 4.1 02:17:25 10° NNW 02:22:09 34° WNW 02:26:51 10° SW
Cosmos 2360 Rocket 2.8 02:22:41 10° S 02:26:45 45° SSE 02:26:45 45° SSE
Cosmos 1709 Rocket 3.9 02:30:25 72° SE 02:30:25 72° SE 02:36:10 10° S
DELTA 2 R/B (1) 4.4 02:33:48 10° WSW 02:38:32 43° WNW 02:38:32 43° WNW
Ariane H10+ 3.9 02:39:19 10° WNW 02:46:12 60° NNE 02:47:50 56° NE
ARIANE 5 R/B 4.4 01:53:57 10° W 02:50:32 49° NNW 02:51:22 48° N
Cosmos 2322 Rocket 4.3 03:06:39 10° WSW 03:10:37 20° WNW 03:11:12 19° WNW
ATLAS 3B CENTAUR R/B 4.2 03:34:18 10° W 03:39:01 43° WNW 03:39:01 43° WNW
Milstar 3 Cent rocket 4.5 09:26:54 23° S 09:29:52 29° SSE 09:39:44 10° E
Atlas Centaur 2 4.3 09:40:18 13° SE 09:40:18 13° SE 09:40:48 10° SE
CZ-3B R/B 4.1 10:00:54 79° N 10:01:01 80° NNE 10:12:36 10° ESE
Cosmos 1455 Rocket 4.3 10:05:20 38° E 10:05:34 39° E 10:09:44 10° SSE
Cosmos 1626 4.5 10:03:10 10° SSE 10:06:06 22° E 10:07:03 20° ENE
CZ-2C R/B 4.4 10:13:50 15° SSW 10:13:50 15° SSW 10:14:40 10° SSW
Cosmos 2369 Rocket 4.1 10:17:47 16° SSW 10:17:47 16° SSW 10:19:12 10° SSW
Cosmos 1420 Rocket 4.0 10:20:21 67° SSW 10:20:21 67° SSW 10:25:02 10° S
IUS-13 SRM-1 3.0 10:21:33 56° NE 10:21:33 56° NE 10:30:27 10° ESE
X-37B 2.6 10:26:48 29° E 10:26:48 29° E 10:28:50 10° ENE
Cosmos 1953 4.4 10:24:56 10° NNE 10:28:20 26° E 10:31:46 10° SE
ARIANE 5 DEB (SYLDA) 4.2 10:27:02 39° NNW 10:28:58 48° NNE 10:43:40 10° E
Cosmos 1470 3.9 10:31:44 34° SSW 10:31:44 34° SSW 10:34:06 10° S
Aurora 2 Rocket 3.8 10:33:35 35° SW 10:34:34 37° SSW 10:38:52 10° SE
Cosmos 1634 Rocket 3.9 10:30:17 18° N 10:35:01 83° W 10:41:16 10° S
ADEOS 3.6 10:32:55 10° NNE 10:38:07 81° ESE 10:43:22 10° S
ARIANE 5 R/B 3.8 10:37:40 31° N 10:38:27 33° NNE 10:44:35 10° E
Meteor 1-24 Rocket 4.2 10:33:17 10° S 10:38:33 58° E 10:43:54 10° NNE
Cosmos 1484 Rocket 2.8 10:39:33 10° NNE 10:43:14 71° E 10:46:57 10° S
ADEOS Rocket 4.3 10:38:01 10° SE 10:43:31 37° E 10:48:37 10° NNE
GP-B 3.1 10:40:29 10° S 10:44:52 59° W 10:45:57 45° NW
CZ-4C R/B 4.4 10:42:16 10° SSE 10:45:23 35° E 10:48:23 10° NNE
DASH 4.1 10:44:56 15° NNE 10:45:52 18° NE 10:48:38 10° E
Delta 2 Rocket 4.2 10:48:46 29° NW 10:51:59 63° NNE 10:59:00 10° ESE
ATLAS CENTAUR R/B 1.4 10:48:11 10° SSW 10:52:43 88° ESE 10:56:56 10° NNE
ARIANE 5 R/B 3.5 10:47:34 25° WNW 10:54:28 43° NNW 10:58:30 10° NE
Chunghua 1 4.3 10:55:57 49° WNW 10:56:50 87° SW 11:00:31 10° SE
GPS 2-04 Rocket1 3.5 11:02:52 28° WSW 11:03:43 32° SW 11:06:57 10° SSE
Cosmos 1544 Rocket 3.7 11:00:52 18° NNW 11:03:53 49° W 11:08:11 10° S
Cosmos 1092 Rocket 3.9 10:57:54 10° S 11:04:04 85° W 11:10:13 10° N
H-2A R/B 2.6 11:00:09 10° SSE 11:04:38 62° ENE 11:09:04 10° N
CZ-4B R/B 4.1 11:00:36 10° NNE 11:04:52 51° ESE 11:09:15 10° S
Meteor 2-5 Rocket 3.9 11:01:41 10° SSW 11:06:58 45° W 11:12:16 10° NNW
Cosmos 1452 Rocket 4.0 11:04:26 23° NW 11:07:10 38° WSW 11:12:03 10° S
METEOR-M 4.0 11:02:03 10° N 11:07:20 69° WNW 11:12:40 10° SSW
Meteor 1-31 Rocket 2.7 11:03:56 10° N 11:07:48 68° W 11:11:41 10° SSW
Nadezhda 4 Rocket 4.4 11:03:22 10° SSW 11:09:00 39° W 11:14:36 10° NNW
Meteor 2-13 Rocket 4.4 11:02:57 10° SSW 11:09:01 61° W 11:15:04 10° N
Cosmos 614 Rocket 4.0 11:05:03 10° SSW 11:10:11 60° WNW 11:15:17 10° N
ARGOS Delta rocket 4.3 11:04:59 10° NNE 11:10:26 80° E 11:15:44 10° S
Meteor 1-16 Rocket 4.1 11:10:57 10° N 11:16:20 87° W 11:21:56 10° S
Cosmos 1726 3.3 11:19:24 20° WNW 11:20:19 22° W 11:23:10 10° SSW
Okean 1-7 Rocket 3.6 11:18:57 10° S 11:23:32 90° WNW 11:28:06 10° N
ALOS 3.0 11:20:18 10° NNW 11:24:20 29° W 11:28:24 10° SW
Atlas Centaur 2 3.6 11:23:46 10° SW 11:25:24 12° SSW 11:26:58 10° S
Landsat 5 3.7 11:21:21 10° S 11:25:33 51° WSW 11:29:34 10° NNW
Cosmos 1023 Rocket 4.4 11:24:35 10° SSW 11:29:45 80° WNW 11:34:51 10° N
Cosmos 1190 Rocket 4.0 11:27:37 10° SSW 11:32:57 78° WNW 11:38:11 10° N
OAO 3 Copernicus 4.3 11:28:54 12° WNW 11:33:38 76° SW 11:38:43 10° SE
Cosmos 1892 Rocket 4.1 11:31:13 10° SSW 11:35:12 36° W 11:39:09 10° NNW
Cosmos 1908 3.6 11:39:08 10° NNW 11:42:49 42° W 11:46:32 10° SSW
Cosmos 1331 Rocket 4.3 11:39:29 10° NNW 11:44:32 50° WSW 11:49:39 10° S
CZ-4B R/B 1.7 11:46:12 10° SSE 11:49:37 73° ENE 11:53:02 10° N
